| time (UTC) | temp F | wind direction | speed MPH | gust MPH | rain 1hr in | rain 24hr in | rain mn in | humidity % | barometer mb |
| 20260508121016 | 75 | 68 | 5.0 | 13.0 | 0.00 | 0.00 | 0.00 | 56 | 1012.3 |
| 20260508120517 | 75 | 68 | 7.0 | 12.0 | 0.00 | 0.00 | 0.00 | 54 | 1012.3 |
| 20260508120016 | 76 | 68 | 4.0 | 10.0 | 0.00 | 0.00 | 0.00 | 54 | 1012.3 |
| 20260508115517 | 76 | 23 | 3.0 | 11.0 | 0.00 | 0.00 | 0.00 | 54 | 1012.4 |
| 20260508115036 | 76 | 113 | 3.0 | 6.0 | 0.00 | 0.00 | 0.00 | 54 | 1012.2 |
| 20260508114517 | 75 | 293 | 4.0 | 12.0 | 0.00 | 0.00 | 0.00 | 55 | 1012.2 |
| 20260508114017 | 76 | 315 | 5.0 | 11.0 | 0.00 | 0.00 | 0.00 | 55 | 1012.2 |
| 20260508113516 | 76 | 0 | 4.0 | 13.0 | 0.00 | 0.00 | 0.00 | 54 | 1012.2 |
| 20260508113016 | 76 | 270 | 5.0 | 11.0 | 0.00 | 0.00 | 0.00 | 54 | 1012.1 |
| 20260508112516 | 76 | 0 | 5.0 | 15.0 | 0.00 | 0.00 | 0.00 | 54 | 1012.2 |
| 20260508112016 | 76 | 315 | 3.0 | 10.0 | 0.00 | 0.00 | 0.00 | 55 | 1012.2 |
| 20260508111516 | 76 | 270 | 4.0 | 12.0 | 0.00 | 0.00 | 0.00 | 54 | 1012.1 |
| 20260508111016 | 75 | 338 | 2.0 | 6.0 | 0.00 | 0.00 | 0.00 | 54 | 1012.2 |
| 20260508110516 | 75 | 293 | 7.0 | 13.0 | 0.00 | 0.00 | 0.00 | 53 | 1012.3 |
| 20260508110016 | 76 | 0 | 4.0 | 12.0 | 0.00 | 0.00 | 0.00 | 55 | 1012.4 |
| 20260508105516 | 75 | 293 | 4.0 | 11.0 | 0.00 | 0.00 | 0.00 | 55 | 1012.3 |
| 20260508105016 | 75 | 338 | 3.0 | 10.0 | 0.00 | 0.00 | 0.00 | 55 | 1012.2 |
| 20260508104516 | 75 | 270 | 4.0 | 10.0 | 0.00 | 0.00 | 0.00 | 56 | 1012.5 |
| 20260508104016 | 75 | 135 | 4.0 | 12.0 | 0.00 | 0.00 | 0.00 | 56 | 1012.4 |
| 20260508103556 | 74 | 90 | 6.0 | 11.0 | 0.00 | 0.00 | 0.00 | 56 | 1012.3 |
| 20260508103016 | 74 | 68 | 8.0 | 15.0 | 0.00 | 0.00 | 0.00 | 56 | 1012.3 |
| 20260508102516 | 74 | 68 | 8.0 | 16.0 | 0.00 | 0.00 | 0.00 | 56 | 1012.5 |
| 20260508102036 | 75 | 90 | 6.0 | 14.0 | 0.00 | 0.00 | 0.00 | 56 | 1012.4 |
| 20260508101516 | 75 | 68 | 5.0 | 12.0 | 0.00 | 0.00 | 0.00 | 57 | 1012.3 |
| 20260508101016 | 74 | 68 | 4.0 | 8.0 | 0.00 | 0.00 | 0.00 | 58 | 1012.3 |
| 20260508100516 | 73 | 68 | 5.0 | 10.0 | 0.00 | 0.00 | 0.00 | 59 | 1012.4 |
| 20260508100016 | 73 | 68 | 3.0 | 9.0 | 0.00 | 0.00 | 0.00 | 59 | 1012.6 |
| 20260508095536 | 72 | 68 | 3.0 | 5.0 | 0.00 | 0.00 | 0.00 | 62 | 1012.5 |
| 20260508095016 | 72 | 90 | 4.0 | 7.0 | 0.00 | 0.00 | 0.00 | 64 | 1012.5 |
| 20260508094516 | 72 | 90 | 4.0 | 10.0 | 0.00 | 0.00 | 0.00 | 64 | 1012.5 |
| 20260508094036 | 72 | 68 | 2.0 | 5.0 | 0.00 | 0.00 | 0.00 | 64 | 1012.5 |
| 20260508093516 | 71 | 90 | 2.0 | 5.0 | 0.00 | 0.00 | 0.00 | 64 | 1012.2 |
| 20260508093016 | 70 | 68 | 4.0 | 9.0 | 0.00 | 0.00 | 0.00 | 64 | 1012.1 |
| 20260508092516 | 70 | 135 | 2.0 | 7.0 | 0.00 | 0.00 | 0.00 | 67 | 1012.2 |
| 20260508092016 | 70 | 135 | 4.0 | 6.0 | 0.00 | 0.00 | 0.00 | 67 | 1012.1 |
| 20260508091516 | 70 | 113 | 5.0 | 7.0 | 0.00 | 0.00 | 0.00 | 68 | 1012.1 |
| 20260508091016 | 71 | 113 | 4.0 | 7.0 | 0.00 | 0.00 | 0.00 | 66 | 1012.1 |
| 20260508090516 | 70 | 113 | 4.0 | 7.0 | 0.00 | 0.00 | 0.00 | 67 | 1012.2 |
| 20260508090036 | 70 | 113 | 5.0 | 8.0 | 0.00 | 0.00 | 0.00 | 66 | 1012.3 |
| 20260508085516 | 71 | 113 | 4.0 | 9.0 | 0.00 | 0.00 | 0.00 | 65 | 1012.4 |
| 20260508085016 | 70 | 113 | 5.0 | 9.0 | 0.00 | 0.00 | 0.00 | 65 | 1012.4 |
| 20260508084516 | 70 | 135 | 4.0 | 6.0 | 0.00 | 0.00 | 0.00 | 66 | 1012.4 |
| 20260508084016 | 70 | 113 | 3.0 | 5.0 | 0.00 | 0.00 | 0.00 | 66 | 1012.2 |
| 20260508083516 | 70 | 113 | 3.0 | 5.0 | 0.00 | 0.00 | 0.00 | 69 | 1012.3 |
| 20260508083016 | 69 | 135 | 4.0 | 7.0 | 0.00 | 0.00 | 0.00 | 67 | 1012.2 |
| 20260508082516 | 69 | 135 | 2.0 | 5.0 | 0.00 | 0.00 | 0.00 | 70 | 1012.2 |
| 20260508082016 | 69 | 113 | 1.0 | 3.0 | 0.00 | 0.00 | 0.00 | 71 | 1012.2 |
| 20260508081516 | 69 | 113 | 2.0 | 4.0 | 0.00 | 0.00 | 0.00 | 73 | 1012.2 |
| 20260508081056 | 69 | 113 | 3.0 | 5.0 | 0.00 | 0.00 | 0.00 | 73 | 1012.2 |
| 20260508080516 | 69 | 113 | 2.0 | 4.0 | 0.00 | 0.00 | 0.00 | 74 | 1012.2 |
| 20260508080016 | 68 | 113 | 2.0 | 4.0 | 0.00 | 0.00 | 0.00 | 74 | 1012.2 |
| 20260508075516 | 69 | 113 | 2.0 | 4.0 | 0.00 | 0.00 | 0.00 | 74 | 1012.2 |
| 20260508075018 | 68 | 135 | 2.0 | 4.0 | 0.00 | 0.00 | 0.00 | 74 | 1012.2 |
| 20260508074518 | 68 | 113 | 1.0 | 2.0 | 0.00 | 0.00 | 0.00 | 76 | 1012.3 |
| 20260508074018 | 67 | 135 | 1.0 | 3.0 | 0.00 | 0.00 | 0.00 | 77 | 1012.1 |
| 20260508073538 | 67 | 135 | 1.0 | 3.0 | 0.00 | 0.00 | 0.00 | 78 | 1012.1 |
| 20260508073018 | 66 | 113 | 1.0 | 2.0 | 0.00 | 0.00 | 0.00 | 78 | 1012.0 |
| 20260508072518 | 66 | 113 | 1.0 | 2.0 | 0.00 | 0.00 | 0.00 | 79 | 1012.0 |
| 20260508072018 | 65 | 113 | 1.0 | 3.0 | 0.00 | 0.00 | 0.00 | 80 | 1012.1 |
| 20260508071638 | 65 | 113 | 2.0 | 3.0 | 0.00 | 0.00 | 0.00 | 80 | 1012.2 |
| 20260508071018 | 65 | 113 | 1.0 | 3.0 | 0.00 | 0.00 | 0.00 | 80 | 1012.2 |
| 20260508070518 | 65 | 90 | 1.0 | 3.0 | 0.00 | 0.00 | 0.00 | 80 | 1012.2 |
| 20260508070018 | 65 | 90 | 2.0 | 3.0 | 0.00 | 0.00 | 0.00 | 80 | 1012.2 |
| 20260508065518 | 65 | 113 | 2.0 | 4.0 | 0.00 | 0.00 | 0.00 | 80 | 1012.1 |
| 20260508065018 | 65 | 113 | 3.0 | 5.0 | 0.00 | 0.00 | 0.00 | 80 | 1012.0 |
| 20260508064538 | 65 | 113 | 3.0 | 5.0 | 0.00 | 0.00 | 0.00 | 80 | 1012.0 |
| 20260508064018 | 66 | 113 | 3.0 | 5.0 | 0.00 | 0.00 | 0.00 | 79 | 1011.9 |
| 20260508063518 | 66 | 135 | 3.0 | 5.0 | 0.00 | 0.00 | 0.00 | 79 | 1012.0 |
| 20260508063018 | 66 | 135 | 3.0 | 5.0 | 0.00 | 0.00 | 0.00 | 79 | 1012.0 |
| 20260508062538 | 66 | 113 | 3.0 | 5.0 | 0.00 | 0.00 | 0.00 | 80 | 1012.0 |
| 20260508062018 | 65 | 113 | 3.0 | 4.0 | 0.00 | 0.00 | 0.00 | 80 | 1011.9 |
| 20260508061518 | 65 | 113 | 2.0 | 4.0 | 0.00 | 0.00 | 0.00 | 80 | 1011.9 |
| 20260508061038 | 65 | 113 | 3.0 | 5.0 | 0.00 | 0.00 | 0.00 | 80 | 1011.9 |
| 20260508060517 | 65 | 113 | 3.0 | 4.0 | 0.00 | 0.00 | 0.00 | 79 | 1012.1 |
| 20260508060017 | 65 | 90 | 2.0 | 3.0 | 0.00 | 0.00 | 0.00 | 80 | 1011.9 |
| 20260508055518 | 65 | 113 | 2.0 | 3.0 | 0.00 | 0.00 | 0.00 | 79 | 1012.0 |
| 20260508055017 | 65 | 113 | 2.0 | 4.0 | 0.00 | 0.00 | 0.00 | 80 | 1011.9 |
| 20260508054517 | 65 | 113 | 1.0 | 2.0 | 0.00 | 0.00 | 0.00 | 79 | 1011.8 |
| 20260508054018 | 65 | 113 | 1.0 | 2.0 | 0.00 | 0.00 | 0.00 | 79 | 1011.7 |
| 20260508053518 | 65 | 0.0 | 2.0 | 0.00 | 0.00 | 0.00 | 79 | 1011.7 | |
| 20260508053017 | 64 | 68 | 1.0 | 2.0 | 0.00 | 0.00 | 0.00 | 80 | 1011.6 |
| 20260508052517 | 64 | 0 | 1.0 | 2.0 | 0.00 | 0.00 | 0.00 | 80 | 1011.6 |
| 20260508052037 | 64 | 0 | 1.0 | 2.0 | 0.00 | 0.00 | 0.00 | 82 | 1011.4 |
| 20260508051518 | 63 | 338 | 1.0 | 2.0 | 0.00 | 0.00 | 0.00 | 83 | 1011.4 |
| 20260508051017 | 63 | 338 | 2.0 | 2.0 | 0.00 | 0.00 | 0.00 | 83 | 1011.4 |
| 20260508050517 | 62 | 293 | 1.0 | 2.0 | 0.00 | 0.00 | 0.00 | 84 | 1011.3 |
| 20260508050018 | 62 | 293 | 1.0 | 2.0 | 0.00 | 0.00 | 0.00 | 84 | 1011.3 |
| 20260508045538 | 62 | 293 | 1.0 | 2.0 | 0.00 | 0.00 | 0.00 | 83 | 1011.1 |
| 20260508045017 | 62 | 0.0 | 2.0 | 0.00 | 0.00 | 0.00 | 84 | 1011.0 | |
| 20260508044518 | 62 | 225 | 1.0 | 2.0 | 0.00 | 0.00 | 0.00 | 84 | 1011.0 |
| 20260508044017 | 62 | 293 | 1.0 | 2.0 | 0.00 | 0.00 | 0.00 | 85 | 1010.9 |
| 20260508043517 | 62 | 293 | 1.0 | 2.0 | 0.00 | 0.00 | 0.00 | 85 | 1010.9 |
| 20260508043018 | 62 | 270 | 2.0 | 3.0 | 0.00 | 0.00 | 0.00 | 84 | 1010.9 |
| 20260508042517 | 62 | 270 | 2.0 | 3.0 | 0.00 | 0.00 | 0.00 | 84 | 1010.8 |
| 20260508042017 | 62 | 203 | 1.0 | 3.0 | 0.00 | 0.00 | 0.00 | 84 | 1010.7 |
| 20260508041517 | 62 | 158 | 1.0 | 2.0 | 0.00 | 0.00 | 0.00 | 84 | 1010.7 |
| 20260508041017 | 62 | 158 | 1.0 | 3.0 | 0.00 | 0.00 | 0.00 | 85 | 1010.6 |
| 20260508040517 | 62 | 113 | 2.0 | 5.0 | 0.00 | 0.00 | 0.00 | 85 | 1010.5 |
| 20260508040018 | 62 | 113 | 2.0 | 3.0 | 0.00 | 0.00 | 0.00 | 85 | 1010.4 |
| 20260508035517 | 63 | 113 | 2.0 | 4.0 | 0.00 | 0.00 | 0.00 | 84 | 1010.4 |
| 20260508035017 | 63 | 113 | 4.0 | 6.0 | 0.00 | 0.00 | 0.00 | 84 | 1010.4 |
| 20260508034517 | 63 | 113 | 3.0 | 5.0 | 0.00 | 0.00 | 0.00 | 84 | 1010.3 |
| 20260508034017 | 63 | 113 | 1.0 | 3.0 | 0.00 | 0.00 | 0.00 | 84 | 1010.3 |
| 20260508033517 | 63 | 113 | 2.0 | 3.0 | 0.00 | 0.00 | 0.00 | 84 | 1010.3 |
| 20260508033017 | 63 | 113 | 2.0 | 4.0 | 0.00 | 0.00 | 0.00 | 84 | 1010.1 |
| 20260508032617 | 63 | 113 | 3.0 | 4.0 | 0.00 | 0.00 | 0.00 | 84 | 1010.1 |
| 20260508032017 | 63 | 135 | 2.0 | 4.0 | 0.00 | 0.00 | 0.00 | 84 | 1009.9 |
| 20260508031537 | 63 | 113 | 1.0 | 3.0 | 0.00 | 0.00 | 0.00 | 84 | 1009.9 |
| 20260508031017 | 63 | 0.0 | 2.0 | 0.00 | 0.00 | 0.00 | 83 | 1010.0 | |
| 20260508030517 | 63 | 135 | 1.0 | 2.0 | 0.00 | 0.00 | 0.00 | 83 | 1009.8 |
| 20260508030017 | 62 | 225 | 1.0 | 2.0 | 0.00 | 0.00 | 0.00 | 84 | 1009.9 |
| 20260508025517 | 62 | 180 | 1.0 | 3.0 | 0.00 | 0.00 | 0.00 | 84 | 1009.7 |
| 20260508025017 | 62 | 0.0 | 2.0 | 0.00 | 0.00 | 0.00 | 84 | 1009.8 | |
| 20260508024537 | 62 | 293 | 2.0 | 3.0 | 0.00 | 0.00 | 0.00 | 83 | 1009.7 |
| 20260508024017 | 63 | 248 | 2.0 | 3.0 | 0.00 | 0.00 | 0.00 | 84 | 1009.9 |
| 20260508023517 | 63 | 23 | 1.0 | 2.0 | 0.00 | 0.00 | 0.00 | 84 | 1010.0 |
| 20260508023017 | 63 | 0.0 | 1.0 | 0.00 | 0.00 | 0.00 | 85 | 1010.0 | |
| 20260508022517 | 63 | 0.0 | 1.0 | 0.00 | 0.00 | 0.00 | 85 | 1010.0 | |
| 20260508022017 | 63 | 0.0 | 1.0 | 0.00 | 0.00 | 0.00 | 85 | 1009.8 | |
| 20260508021517 | 63 | 23 | 1.0 | 2.0 | 0.00 | 0.00 | 0.00 | 85 | 1009.7 |
| 20260508021017 | 63 | 23 | 2.0 | 3.0 | 0.00 | 0.00 | 0.00 | 84 | 1009.7 |
| 20260508020517 | 63 | 68 | 2.0 | 3.0 | 0.00 | 0.00 | 0.00 | 84 | 1009.7 |
| 20260508020017 | 63 | 68 | 1.0 | 2.0 | 0.00 | 0.00 | 0.00 | 83 | 1009.8 |
| 20260508015537 | 63 | 90 | 1.0 | 2.0 | 0.00 | 0.00 | 0.00 | 83 | 1009.9 |
| 20260508015017 | 64 | 135 | 1.0 | 4.0 | 0.00 | 0.00 | 0.00 | 83 | 1009.9 |
| 20260508014517 | 64 | 135 | 2.0 | 4.0 | 0.00 | 0.00 | 0.00 | 83 | 1009.9 |
| 20260508014017 | 64 | 135 | 4.0 | 9.0 | 0.00 | 0.00 | 0.00 | 82 | 1009.9 |
| 20260508013517 | 64 | 113 | 4.0 | 10.0 | 0.00 | 0.00 | 0.00 | 82 | 1009.9 |
| 20260508013017 | 64 | 113 | 3.0 | 4.0 | 0.00 | 0.00 | 0.00 | 81 | 1010.0 |
| 20260508012537 | 64 | 113 | 2.0 | 4.0 | 0.00 | 0.00 | 0.00 | 80 | 1010.0 |
| 20260508012017 | 64 | 113 | 2.0 | 4.0 | 0.00 | 0.00 | 0.00 | 80 | 1009.9 |
| 20260508011517 | 64 | 135 | 4.0 | 6.0 | 0.00 | 0.00 | 0.00 | 79 | 1010.1 |
| 20260508011037 | 64 | 135 | 4.0 | 7.0 | 0.00 | 0.00 | 0.00 | 79 | 1010.2 |
| 20260508010517 | 64 | 135 | 4.0 | 9.0 | 0.00 | 0.00 | 0.00 | 79 | 1010.3 |
| 20260508010017 | 65 | 135 | 6.0 | 10.0 | 0.00 | 0.00 | 0.00 | 79 | 1010.3 |
| 20260508005517 | 65 | 135 | 6.0 | 11.0 | 0.00 | 0.00 | 0.00 | 77 | 1010.2 |
| 20260508005017 | 66 | 135 | 5.0 | 7.0 | 0.00 | 0.00 | 0.00 | 74 | 1010.1 |
| 20260508004517 | 66 | 135 | 4.0 | 9.0 | 0.00 | 0.00 | 0.00 | 72 | 1010.2 |
| 20260508004017 | 67 | 158 | 3.0 | 6.0 | 0.00 | 0.00 | 0.00 | 69 | 1010.3 |
| 20260508003517 | 67 | 180 | 4.0 | 12.0 | 0.00 | 0.00 | 0.00 | 69 | 1010.4 |
| 20260508003017 | 66 | 180 | 4.0 | 11.0 | 0.00 | 0.00 | 0.00 | 70 | 1010.5 |
| 20260508002538 | 66 | 180 | 5.0 | 11.0 | 0.00 | 0.00 | 0.00 | 71 | 1010.7 |
| 20260508002017 | 66 | 180 | 4.0 | 8.0 | 0.00 | 0.00 | 0.00 | 72 | 1010.6 |
| 20260508001517 | 65 | 158 | 5.0 | 7.0 | 0.00 | 0.00 | 0.00 | 74 | 1010.6 |
| 20260508001017 | 65 | 158 | 2.0 | 5.0 | 0.00 | 0.00 | 0.00 | 76 | 1010.6 |
| 20260508000517 | 65 | 158 | 3.0 | 6.0 | 0.00 | 0.00 | 0.00 | 77 | 1010.6 |
| 20260508000017 | 65 | 158 | 5.0 | 7.0 | 0.00 | 0.00 | 0.00 | 78 | 1010.7 |
| 20260507235517 | 65 | 158 | 4.0 | 9.0 | 0.00 | 0.00 | 0.00 | 78 | 1010.8 |
| 20260507235017 | 65 | 135 | 4.0 | 9.0 | 0.00 | 0.00 | 0.00 | 78 | 1011.0 |
| 20260507234517 | 65 | 135 | 4.0 | 7.0 | 0.00 | 0.00 | 0.00 | 77 | 1011.0 |
| 20260507234017 | 65 | 158 | 5.0 | 10.0 | 0.00 | 0.00 | 0.00 | 76 | 1011.2 |
| 20260507233516 | 65 | 158 | 5.0 | 11.0 | 0.00 | 0.00 | 0.00 | 77 | 1011.5 |
| 20260507233017 | 65 | 158 | 8.0 | 17.0 | 0.00 | 0.00 | 0.00 | 76 | 1011.5 |
| 20260507232516 | 65 | 135 | 4.0 | 10.0 | 0.00 | 0.00 | 0.00 | 78 | 1011.5 |
| 20260507232037 | 65 | 135 | 7.0 | 14.0 | 0.00 | 0.00 | 0.00 | 79 | 1011.6 |
| 20260507231517 | 65 | 135 | 8.0 | 15.0 | 0.00 | 0.00 | 0.00 | 79 | 1011.5 |
| 20260507231016 | 65 | 158 | 8.0 | 18.0 | 0.00 | 0.00 | 0.00 | 79 | 1011.5 |
| 20260507230516 | 65 | 158 | 5.0 | 10.0 | 0.00 | 0.00 | 0.00 | 79 | 1011.5 |
| 20260507230017 | 65 | 135 | 5.0 | 11.0 | 0.00 | 0.00 | 0.00 | 79 | 1011.3 |
| 20260507225516 | 65 | 158 | 5.0 | 11.0 | 0.00 | 0.00 | 0.00 | 78 | 1011.2 |
| 20260507225017 | 65 | 135 | 6.0 | 13.0 | 0.00 | 0.00 | 0.00 | 78 | 1011.1 |
| 20260507224517 | 65 | 135 | 6.0 | 11.0 | 0.00 | 0.00 | 0.00 | 78 | 1011.0 |
| 20260507224037 | 65 | 135 | 4.0 | 9.0 | 0.00 | 0.00 | 0.00 | 78 | 1010.8 |
| 20260507223517 | 65 | 135 | 4.0 | 9.0 | 0.00 | 0.00 | 0.00 | 77 | 1010.9 |
| 20260507223016 | 65 | 135 | 5.0 | 9.0 | 0.00 | 0.00 | 0.00 | 77 | 1011.0 |
| 20260507222517 | 65 | 135 | 5.0 | 9.0 | 0.00 | 0.00 | 0.00 | 77 | 1011.1 |
| 20260507222017 | 65 | 135 | 5.0 | 7.0 | 0.00 | 0.00 | 0.00 | 76 | 1011.0 |
| 20260507221516 | 65 | 135 | 7.0 | 11.0 | 0.00 | 0.00 | 0.00 | 76 | 1011.0 |
| 20260507221019 | 65 | 135 | 6.0 | 10.0 | 0.00 | 0.00 | 0.00 | 75 | 1010.9 |
| 20260507220516 | 66 | 135 | 4.0 | 6.0 | 0.00 | 0.00 | 0.00 | 74 | 1010.9 |
| 20260507220017 | 66 | 135 | 3.0 | 5.0 | 0.00 | 0.00 | 0.00 | 74 | 1010.9 |
| 20260507215516 | 66 | 158 | 5.0 | 7.0 | 0.00 | 0.00 | 0.00 | 74 | 1010.9 |
| 20260507215016 | 66 | 158 | 4.0 | 11.0 | 0.00 | 0.00 | 0.00 | 74 | 1010.9 |
| 20260507214516 | 66 | 180 | 5.0 | 10.0 | 0.00 | 0.00 | 0.00 | 74 | 1010.8 |
| 20260507214016 | 66 | 158 | 5.0 | 11.0 | 0.00 | 0.00 | 0.00 | 74 | 1010.9 |
| 20260507213536 | 66 | 158 | 6.0 | 12.0 | 0.00 | 0.00 | 0.00 | 74 | 1010.8 |
| 20260507213016 | 66 | 158 | 5.0 | 11.0 | 0.00 | 0.00 | 0.00 | 73 | 1011.2 |
| 20260507212516 | 66 | 180 | 5.0 | 12.0 | 0.00 | 0.00 | 0.00 | 73 | 1011.0 |
| 20260507212016 | 66 | 203 | 9.0 | 17.0 | 0.00 | 0.00 | 0.00 | 73 | 1011.3 |
| 20260507211516 | 66 | 180 | 10.0 | 16.0 | 0.00 | 0.00 | 0.00 | 73 | 1011.4 |
| 20260507211016 | 66 | 203 | 8.0 | 17.0 | 0.00 | 0.00 | 0.00 | 72 | 1011.4 |
| 20260507210516 | 66 | 180 | 11.0 | 18.0 | 0.00 | 0.00 | 0.00 | 72 | 1011.4 |
| 20260507210016 | 66 | 180 | 6.0 | 13.0 | 0.00 | 0.00 | 0.00 | 72 | 1011.4 |
| 20260507205516 | 66 | 180 | 7.0 | 13.0 | 0.00 | 0.00 | 0.00 | 72 | 1011.3 |
| 20260507205016 | 66 | 180 | 9.0 | 14.0 | 0.00 | 0.00 | 0.00 | 72 | 1011.0 |
| 20260507204516 | 66 | 203 | 6.0 | 14.0 | 0.00 | 0.00 | 0.00 | 72 | 1010.8 |
| 20260507204016 | 66 | 180 | 8.0 | 14.0 | 0.00 | 0.00 | 0.00 | 72 | 1010.8 |
| 20260507203536 | 66 | 180 | 6.0 | 13.0 | 0.00 | 0.00 | 0.00 | 72 | 1010.8 |
| 20260507203016 | 66 | 203 | 5.0 | 12.0 | 0.00 | 0.00 | 0.00 | 71 | 1010.9 |
| 20260507202516 | 66 | 203 | 7.0 | 14.0 | 0.00 | 0.00 | 0.00 | 71 | 1010.9 |
| 20260507202016 | 66 | 203 | 6.0 | 12.0 | 0.00 | 0.00 | 0.00 | 71 | 1010.9 |
| 20260507201516 | 66 | 203 | 9.0 | 15.0 | 0.00 | 0.00 | 0.00 | 71 | 1010.8 |
| 20260507201016 | 66 | 203 | 8.0 | 13.0 | 0.00 | 0.00 | 0.00 | 71 | 1011.0 |
| 20260507200516 | 66 | 203 | 9.0 | 16.0 | 0.00 | 0.00 | 0.00 | 70 | 1011.1 |
| 20260507200016 | 66 | 203 | 9.0 | 16.0 | 0.00 | 0.00 | 0.00 | 70 | 1011.1 |
| 20260507195516 | 66 | 203 | 10.0 | 17.0 | 0.00 | 0.00 | 0.00 | 70 | 1011.0 |
| 20260507195018 | 66 | 203 | 8.0 | 16.0 | 0.00 | 0.00 | 0.00 | 69 | 1011.0 |
| 20260507194518 | 67 | 180 | 7.0 | 11.0 | 0.00 | 0.00 | 0.00 | 69 | 1010.7 |
| 20260507194018 | 67 | 203 | 8.0 | 12.0 | 0.00 | 0.00 | 0.00 | 69 | 1010.7 |
| 20260507193518 | 67 | 180 | 7.0 | 14.0 | 0.00 | 0.00 | 0.00 | 68 | 1010.8 |
| 20260507193058 | 67 | 158 | 6.0 | 12.0 | 0.00 | 0.00 | 0.00 | 68 | 1010.7 |
| 20260507192538 | 67 | 180 | 7.0 | 15.0 | 0.00 | 0.00 | 0.00 | 68 | 1010.6 |
| 20260507192018 | 67 | 180 | 9.0 | 16.0 | 0.00 | 0.00 | 0.00 | 67 | 1010.5 |
| 20260507191518 | 67 | 225 | 8.0 | 17.0 | 0.00 | 0.00 | 0.00 | 67 | 1010.5 |
| 20260507191018 | 67 | 203 | 10.0 | 17.0 | 0.00 | 0.00 | 0.00 | 67 | 1010.5 |
| 20260507190518 | 67 | 203 | 11.0 | 19.0 | 0.00 | 0.00 | 0.00 | 68 | 1010.5 |
| 20260507190018 | 67 | 203 | 8.0 | 14.0 | 0.00 | 0.00 | 0.00 | 67 | 1010.4 |
| 20260507185518 | 67 | 203 | 9.0 | 16.0 | 0.00 | 0.00 | 0.00 | 67 | 1010.3 |
| 20260507185018 | 67 | 203 | 10.0 | 18.0 | 0.00 | 0.00 | 0.00 | 67 | 1010.3 |
| 20260507184518 | 67 | 180 | 8.0 | 14.0 | 0.00 | 0.00 | 0.00 | 67 | 1010.0 |
| 20260507184058 | 67 | 203 | 10.0 | 17.0 | 0.00 | 0.00 | 0.00 | 67 | 1009.9 |
| 20260507183518 | 67 | 180 | 10.0 | 19.0 | 0.00 | 0.00 | 0.00 | 67 | 1009.9 |
| 20260507183018 | 67 | 158 | 10.0 | 17.0 | 0.00 | 0.00 | 0.00 | 66 | 1009.8 |
| 20260507182518 | 67 | 203 | 8.0 | 16.0 | 0.00 | 0.00 | 0.00 | 65 | 1010.0 |
| 20260507182018 | 67 | 158 | 11.0 | 20.0 | 0.00 | 0.00 | 0.00 | 65 | 1009.9 |
| 20260507181517 | 67 | 180 | 13.0 | 23.0 | 0.00 | 0.00 | 0.00 | 64 | 1010.2 |
| 20260507181017 | 68 | 203 | 16.0 | 24.0 | 0.00 | 0.00 | 0.00 | 64 | 1010.3 |
| 20260507180518 | 67 | 180 | 13.0 | 24.0 | 0.00 | 0.00 | 0.00 | 65 | 1010.4 |
| 20260507180017 | 67 | 180 | 11.0 | 20.0 | 0.00 | 0.00 | 0.00 | 65 | 1010.1 |
| 20260507175517 | 67 | 180 | 14.0 | 23.0 | 0.00 | 0.00 | 0.00 | 65 | 1010.1 |
| 20260507175017 | 67 | 180 | 13.0 | 20.0 | 0.00 | 0.00 | 0.00 | 65 | 1010.1 |
| 20260507174518 | 67 | 180 | 12.0 | 22.0 | 0.00 | 0.00 | 0.00 | 66 | 1010.2 |
| 20260507174017 | 67 | 158 | 12.0 | 18.0 | 0.00 | 0.00 | 0.00 | 66 | 1010.2 |
| 20260507173537 | 67 | 180 | 13.0 | 21.0 | 0.00 | 0.00 | 0.00 | 66 | 1010.3 |
| 20260507173018 | 67 | 180 | 13.0 | 23.0 | 0.00 | 0.00 | 0.00 | 66 | 1010.3 |
| 20260507172538 | 67 | 180 | 15.0 | 25.0 | 0.00 | 0.00 | 0.00 | 66 | 1010.2 |
| 20260507172017 | 67 | 180 | 17.0 | 29.0 | 0.00 | 0.00 | 0.00 | 66 | 1010.3 |
| 20260507171517 | 67 | 180 | 16.0 | 29.0 | 0.00 | 0.00 | 0.00 | 66 | 1010.5 |
| 20260507171018 | 67 | 180 | 15.0 | 32.0 | 0.00 | 0.00 | 0.00 | 66 | 1010.3 |
| 20260507170518 | 68 | 158 | 13.0 | 25.0 | 0.00 | 0.00 | 0.00 | 65 | 1010.3 |
| 20260507170017 | 68 | 158 | 17.0 | 29.0 | 0.00 | 0.00 | 0.00 | 65 | 1010.3 |
| 20260507165538 | 68 | 158 | 14.0 | 24.0 | 0.00 | 0.00 | 0.00 | 65 | 1010.0 |
| 20260507165018 | 68 | 158 | 14.0 | 29.0 | 0.00 | 0.00 | 0.00 | 65 | 1010.1 |
| 20260507164537 | 68 | 180 | 14.0 | 27.0 | 0.00 | 0.00 | 0.00 | 65 | 1010.0 |
| 20260507164017 | 68 | 158 | 15.0 | 24.0 | 0.00 | 0.00 | 0.00 | 64 | 1010.1 |
| 20260507163517 | 68 | 158 | 13.0 | 26.0 | 0.00 | 0.00 | 0.00 | 64 | 1010.2 |
| 20260507163017 | 68 | 158 | 15.0 | 25.0 | 0.00 | 0.00 | 0.00 | 64 | 1010.2 |
| 20260507162517 | 68 | 158 | 12.0 | 19.0 | 0.00 | 0.00 | 0.00 | 64 | 1010.3 |
| 20260507162017 | 68 | 158 | 14.0 | 29.0 | 0.00 | 0.00 | 0.00 | 64 | 1010.3 |
| 20260507161517 | 68 | 158 | 15.0 | 26.0 | 0.00 | 0.00 | 0.00 | 64 | 1010.2 |
| 20260507161017 | 68 | 158 | 13.0 | 23.0 | 0.00 | 0.00 | 0.00 | 65 | 1010.2 |
| 20260507160517 | 68 | 158 | 12.0 | 21.0 | 0.00 | 0.00 | 0.00 | 65 | 1010.0 |
| 20260507160017 | 68 | 158 | 15.0 | 25.0 | 0.00 | 0.00 | 0.00 | 64 | 1010.1 |
| 20260507155517 | 69 | 135 | 12.0 | 22.0 | 0.00 | 0.00 | 0.00 | 64 | 1010.1 |
| 20260507155058 | 69 | 158 | 12.0 | 23.0 | 0.00 | 0.00 | 0.00 | 63 | 1010.2 |
| 20260507154537 | 69 | 135 | 12.0 | 23.0 | 0.00 | 0.00 | 0.00 | 62 | 1010.0 |
| 20260507154017 | 69 | 158 | 12.0 | 26.0 | 0.00 | 0.00 | 0.00 | 62 | 1010.2 |
| 20260507153517 | 69 | 158 | 11.0 | 21.0 | 0.00 | 0.00 | 0.00 | 62 | 1010.2 |
| 20260507153017 | 69 | 135 | 11.0 | 21.0 | 0.00 | 0.00 | 0.00 | 62 | 1010.2 |
| 20260507152537 | 69 | 135 | 11.0 | 20.0 | 0.00 | 0.00 | 0.00 | 61 | 1010.2 |
| 20260507152017 | 70 | 135 | 11.0 | 20.0 | 0.00 | 0.00 | 0.00 | 61 | 1010.4 |
| 20260507151517 | 70 | 158 | 11.0 | 19.0 | 0.00 | 0.00 | 0.00 | 61 | 1010.2 |
| 20260507151017 | 70 | 135 | 12.0 | 24.0 | 0.00 | 0.00 | 0.00 | 61 | 1010.2 |
| 20260507150517 | 69 | 135 | 13.0 | 26.0 | 0.00 | 0.00 | 0.00 | 61 | 1010.1 |
| 20260507150017 | 70 | 135 | 12.0 | 22.0 | 0.00 | 0.00 | 0.00 | 61 | 1009.9 |
| 20260507145537 | 70 | 158 | 15.0 | 25.0 | 0.00 | 0.00 | 0.00 | 60 | 1009.9 |
| 20260507145017 | 69 | 135 | 12.0 | 23.0 | 0.00 | 0.00 | 0.00 | 60 | 1010.1 |
| 20260507144517 | 69 | 135 | 14.0 | 24.0 | 0.00 | 0.00 | 0.00 | 60 | 1010.1 |
| 20260507144017 | 70 | 135 | 13.0 | 29.0 | 0.00 | 0.00 | 0.00 | 59 | 1010.1 |
| 20260507143517 | 70 | 158 | 14.0 | 27.0 | 0.00 | 0.00 | 0.00 | 59 | 1010.2 |
| 20260507143017 | 70 | 135 | 13.0 | 22.0 | 0.00 | 0.00 | 0.00 | 59 | 1010.3 |
| 20260507142517 | 70 | 135 | 14.0 | 25.0 | 0.00 | 0.00 | 0.00 | 58 | 1010.6 |
| 20260507142017 | 70 | 135 | 12.0 | 25.0 | 0.00 | 0.00 | 0.00 | 58 | 1010.4 |
| 20260507141517 | 70 | 135 | 12.0 | 22.0 | 0.00 | 0.00 | 0.00 | 58 | 1010.6 |
| 20260507141017 | 70 | 135 | 10.0 | 19.0 | 0.00 | 0.00 | 0.00 | 57 | 1010.7 |
| 20260507140537 | 70 | 135 | 12.0 | 23.0 | 0.00 | 0.00 | 0.00 | 57 | 1010.8 |
| 20260507140037 | 71 | 135 | 11.0 | 21.0 | 0.00 | 0.00 | 0.00 | 56 | 1010.6 |
| 20260507135534 | 71 | 135 | 12.0 | 22.0 | 0.00 | 0.00 | 0.00 | 55 | 1010.7 |
| 20260507135017 | 71 | 135 | 12.0 | 25.0 | 0.00 | 0.00 | 0.00 | 55 | 1010.8 |
| 20260507134517 | 71 | 135 | 14.0 | 23.0 | 0.00 | 0.00 | 0.00 | 54 | 1010.7 |
| 20260507134017 | 71 | 113 | 12.0 | 22.0 | 0.00 | 0.00 | 0.00 | 54 | 1010.8 |
| 20260507133517 | 72 | 135 | 10.0 | 21.0 | 0.00 | 0.00 | 0.00 | 54 | 1010.8 |
| 20260507133017 | 72 | 135 | 17.0 | 26.0 | 0.00 | 0.00 | 0.00 | 52 | 1010.7 |
| 20260507132517 | 71 | 135 | 13.0 | 24.0 | 0.00 | 0.00 | 0.00 | 54 | 1011.0 |
| 20260507132017 | 72 | 135 | 12.0 | 21.0 | 0.00 | 0.00 | 0.00 | 53 | 1011.0 |
| 20260507131517 | 72 | 135 | 12.0 | 24.0 | 0.00 | 0.00 | 0.00 | 52 | 1011.2 |
| 20260507131017 | 72 | 135 | 16.0 | 25.0 | 0.00 | 0.00 | 0.00 | 51 | 1011.2 |
| 20260507130537 | 72 | 135 | 14.0 | 22.0 | 0.00 | 0.00 | 0.00 | 51 | 1011.1 |
| 20260507130017 | 72 | 135 | 13.0 | 25.0 | 0.00 | 0.00 | 0.00 | 52 | 1011.1 |
| 20260507125517 | 72 | 135 | 17.0 | 27.0 | 0.00 | 0.00 | 0.00 | 50 | 1011.1 |
| 20260507125017 | 72 | 135 | 13.0 | 23.0 | 0.00 | 0.00 | 0.00 | 52 | 1011.3 |
| 20260507124517 | 73 | 135 | 15.0 | 25.0 | 0.00 | 0.00 | 0.00 | 48 | 1011.4 |
| 20260507124017 | 73 | 135 | 15.0 | 24.0 | 0.00 | 0.00 | 0.00 | 48 | 1011.2 |
| 20260507123517 | 73 | 135 | 13.0 | 25.0 | 0.00 | 0.00 | 0.00 | 49 | 1011.2 |
| 20260507123017 | 73 | 135 | 12.0 | 21.0 | 0.00 | 0.00 | 0.00 | 48 | 1011.2 |
| 20260507122517 | 73 | 135 | 14.0 | 24.0 | 0.00 | 0.00 | 0.00 | 46 | 1011.4 |
| 20260507122017 | 73 | 135 | 14.0 | 21.0 | 0.00 | 0.00 | 0.00 | 47 | 1011.3 |
| 20260507121517 | 74 | 135 | 17.0 | 31.0 | 0.00 | 0.00 | 0.00 | 45 | 1011.3 |